Simultaneous Nadir Overpasses (SNOs) Predictions

Prediction of SNOs between GOES-15 and METOP-A Satellite Orbit:

Table of predicted SNOs for the next 14.0 days since TLE Epoch: 9/7/2019
Index Date Time (GOES-15) GOES-15 Lat,Lon METOP-A Lat,Lon Distance(km) Time Diff (sec)
1 09/07/2019 17:22:59 -0.14,-128.29 -0.79,-125.45 324.27 80
2 09/09/2019 05:39:20 0.17,-128.21 -0.25,-130.07 212.20 80
3 09/10/2019 05:21:21 0.15,-128.19 0.81,-125.08 353.35 80
4 09/11/2019 17:37:35 -0.18,-128.21 0.12,-129.69 168.62 80
5 09/12/2019 17:19:36 -0.16,-128.19 -0.94,-124.70 397.12 80
6 09/14/2019 05:35:57 0.20,-128.11 -0.10,-129.33 139.33 80
7 09/15/2019 05:17:59 0.18,-128.08 1.02,-124.35 425.89 80
8 09/16/2019 17:34:12 -0.21,-128.09 -0.03,-128.94 96.96 80
9 09/17/2019 17:16:12 -0.19,-128.07 -1.09,-123.95 468.31 80
10 09/19/2019 05:32:34 0.21,-127.98 0.06,-128.58 68.47 80
11 09/20/2019 05:14:35 0.20,-127.95 1.19,-123.60 496.02 80




NCC Satellite Simultaneous Nadir Overpasses (SNOs) Prediction Service
